Bat Cave, NC

6:53 PM EDT on July 29, 2016 (GMT -0400)
Asheville Regional

Weather History for KAVL - February, 2011

Change the Weather History Date:

Monday, February 28, 2011

  Actual Average Record
Temperature  
Mean Temperature 61 °F 43 °F  
Max Temperature 71 °F 54 °F 77 °F (1972)
Min Temperature 50 °F 32 °F 13 °F (1935)
Degree Days  
Heating Degree Days 4 22  
Month to date heating degree days 600 690  
Since 1 July heating degree days 3448 3217  
Cooling Degree Days 0 0  
Month to date cooling degree days 0 0  
Year to date cooling degree days 0 0  
Growing Degree Days 10 (Base 50)    
Moisture  
Dew Point 54 °F    
Average Humidity 81    
Maximum Humidity 100    
Minimum Humidity 61    
Precipitation  
Precipitation 0.73 in 0.13 in 4.50 in (1902)
Month to date precipitation 2.97 3.76  
Year to date precipitation 5.09 7.43  
Snow  
Snow 0.00 in 0.10 in 5.50 in (1937)
Month to date snowfall 0.6 2.2  
Since 1 July snowfall 20.8 7.3  
Snow Depth 0.00 in    
Sea Level Pressure  
Sea Level Pressure 29.85 in    
Wind  
Wind Speed 13 mph (WSW)    
Max Wind Speed 25 mph    
Max Gust Speed 33 mph    
Visibility 9 miles    
Events Rain , Thunderstorm    
T = Trace of Precipitation, MM = Missing Value Source: NWS Daily Summary

Daily Weather History Graph

Daily Weather History Graph

Search for Another Location

Airport or City:

Trip Planner

Search our weather history database for the weather conditions in past years. The results will help you decide how hot, cold, wet, or windy it might be!

Date:

Astronomy

Feb. 28, 2011 Rise Set
Actual Time 7:01 AM EST 6:24 PM EST
Civil Twilight 6:35 AM EST 6:49 PM EST
Nautical Twilight 6:06 AM EST 7:19 PM EST
Astronomical Twilight 5:37 AM EST 7:48 PM EST
Moon 4:25 AM EST (2/28) 2:46 PM EST (2/28)
Length of Visible Light 12h 14m
Length of Day
11h 22m
Waning Crescent, 15% of the Moon is Illuminated
Feb 28
Waning Crescent
Mar 4
New
Mar 12
First Quarter
Mar 19
Full
Mar 26
Last Quarter

Hourly Weather History & Observations

Time (EST) Temp. Dew Point Humidity Pressure Visibility Wind Dir Wind Speed Gust Speed Precip Events Conditions
12:54 AM 64.0 °F 54.0 °F 70% 29.94 in 10.0 mi South 10.4 mph - N/A   Mostly Cloudy
1:54 AM 64.0 °F 54.0 °F 70% 29.93 in 10.0 mi South 13.8 mph - N/A   Overcast
2:24 AM 64.4 °F 55.4 °F 73% 29.99 in 10.0 mi SSW 15.0 mph 25.3 mph N/A   Overcast
2:33 AM 62.6 °F 55.4 °F 77% 29.98 in 10.0 mi South 13.8 mph 23.0 mph N/A   Overcast
2:54 AM 62.6 °F 55.4 °F 77% 29.96 in 10.0 mi South 15.0 mph 23.0 mph N/A   Mostly Cloudy
3:54 AM 62.1 °F 55.0 °F 78% 29.84 in 10.0 mi South 17.3 mph 23.0 mph N/A   Scattered Clouds
4:03 AM 62.6 °F 55.4 °F 77% 29.91 in 10.0 mi South 15.0 mph 21.9 mph N/A   Mostly Cloudy
4:54 AM 62.1 °F 55.0 °F 78% 29.87 in 10.0 mi South 12.7 mph 19.6 mph N/A   Mostly Cloudy
5:06 AM 60.8 °F 55.4 °F 82% 29.93 in 10.0 mi South 16.1 mph 21.9 mph N/A   Mostly Cloudy
5:54 AM 61.0 °F 55.0 °F 81% 29.88 in 10.0 mi South 15.0 mph 28.8 mph N/A   Mostly Cloudy
6:54 AM 60.1 °F 54.0 °F 80% 29.88 in 10.0 mi South 12.7 mph 20.7 mph N/A   Partly Cloudy
7:54 AM 62.1 °F 54.0 °F 75% 29.88 in 10.0 mi South 13.8 mph 23.0 mph N/A   Partly Cloudy
8:54 AM 64.0 °F 55.0 °F 73% 29.86 in 10.0 mi South 12.7 mph 23.0 mph N/A   Partly Cloudy
9:54 AM 64.0 °F 55.0 °F 73% 29.84 in 10.0 mi SSW 16.1 mph 23.0 mph N/A   Mostly Cloudy
10:54 AM 66.2 °F 55.4 °F 68% 29.90 in 10.0 mi SSW 20.7 mph 32.2 mph N/A   Partly Cloudy
11:54 AM 69.1 °F 55.9 °F 63% 29.80 in 10.0 mi SSW 19.6 mph 28.8 mph N/A   Partly Cloudy
12:54 PM 69.1 °F 55.9 °F 63% 29.78 in 10.0 mi SSW 20.7 mph 33.4 mph N/A   Mostly Cloudy
1:54 PM 69.1 °F 55.9 °F 63% 29.73 in 10.0 mi South 18.4 mph 26.5 mph N/A   Mostly Cloudy
2:54 PM 68.0 °F 57.0 °F 68% 29.69 in 10.0 mi South 23.0 mph 32.2 mph N/A   Scattered Clouds
3:54 PM 64.9 °F 57.9 °F 78% 29.73 in 10.0 mi South 3.5 mph 24.2 mph 0.00 in Rain Light Rain
4:14 PM 57.2 °F 51.8 °F 82% 29.80 in 2.0 mi North 19.6 mph 27.6 mph 0.02 in Rain , Thunderstorm Heavy Thunderstorms and Rain
4:21 PM 55.4 °F 53.6 °F 94% 29.83 in 2.0 mi NNW 18.4 mph 27.6 mph 0.13 in Rain , Thunderstorm Heavy Thunderstorms and Rain
4:33 PM 55.4 °F 53.6 °F 94% 29.82 in 1.5 mi NNW 5.8 mph 18.4 mph 0.35 in Rain Heavy Rain
4:46 PM 53.6 °F 53.6 °F 100% 29.79 in 2.5 mi NNE 8.1 mph - 0.52 in Rain Heavy Rain
4:54 PM 54.0 °F 54.0 °F 100% 29.78 in 4.0 mi Variable 4.6 mph - 0.57 in Rain Rain
5:17 PM 55.4 °F 53.6 °F 94% 29.76 in 8.0 mi North 8.1 mph - 0.06 in Rain Light Rain
5:29 PM 55.4 °F 53.6 °F 94% 29.81 in 10.0 mi NW 9.2 mph - 0.07 in Rain Light Rain
5:54 PM 55.0 °F 53.1 °F 93% 29.78 in 7.0 mi NW 9.2 mph - 0.12 in Rain Rain
6:03 PM 55.4 °F 53.6 °F 94% 29.82 in 10.0 mi NNW 8.1 mph - 0.00 in Rain Light Rain
6:54 PM 54.0 °F 52.0 °F 93% 29.79 in 10.0 mi NNW 6.9 mph - 0.01 in   Partly Cloudy
7:54 PM 54.0 °F 52.0 °F 93% 29.83 in 10.0 mi NNW 9.2 mph - N/A   Mostly Cloudy
8:11 PM 53.6 °F 51.8 °F 94% 29.88 in 10.0 mi NNW 8.1 mph - N/A   Scattered Clouds
8:54 PM 53.1 °F 51.1 °F 93% 29.84 in 10.0 mi North 6.9 mph - N/A   Clear
9:54 PM 52.0 °F 50.0 °F 93% 29.88 in 10.0 mi NNW 8.1 mph - N/A   Scattered Clouds
10:47 PM 51.8 °F 51.8 °F 100% 29.95 in 8.0 mi NNW 5.8 mph - 0.00 in Rain Light Rain
10:54 PM 52.0 °F 51.1 °F 97% 29.91 in 6.0 mi NNW 6.9 mph - 0.01 in Rain Rain
11:54 PM 50.0 °F 46.9 °F 89% 29.93 in 10.0 mi NNW 17.3 mph 24.2 mph 0.02 in   Mostly Cloudy